When you browse on this site, cookies collect data to enhance your experience and personalize the content and advertising you see.
Visit our Privacy Policy to learn more. By continuing to use the site, you agree to this use of cookies and data.
  • In Portugal
  • List of Countries
  • For 7 days
  • Water Temperature
  • Satellite Maps
  • Weather Map
  • Weather Widgets
  • user-avatar
    Login

    Hourly Weather Yakovlevka

    Today, 21 February, Thursday

    Time Temperature Precipitation Wind Pressure Humidity
    00:00 -2°C° 0 mm 1 mps 752 mmHg 65%
    01:00 -2°C° 0 mm 1 mps 752 mmHg 66%
    02:00 -3°C° 0 mm 1 mps 752 mmHg 68%
    03:00 -3°C° 0 mm 1 mps 752 mmHg 69%
    04:00 -3°C° 0 mm 1 mps 752 mmHg 71%
    05:00 -3°C° 0 mm 1 mps 752 mmHg 74%
    06:00 -4°C° 0 mm 1 mps 752 mmHg 77%
    07:00 -3°C° 0 mm 1 mps 752 mmHg 70%
    08:00 -2°C° 0 mm 1 mps 752 mmHg 64%
    09:00 -1°C° 0 mm 1 mps 752 mmHg 57%
    10:00 -2°C° 0 mm 2 mps 752 mmHg 51%
    11:00 -1°C° 0 mm 2 mps 752 mmHg 44%
    12:00 +1°C° 0 mm 3 mps 751 mmHg 37%
    13:00 +1°C° 0 mm 3 mps 751 mmHg 36%
    14:00 +2°C° 0 mm 3 mps 751 mmHg 34%
    15:00 +2°C° 0 mm 3 mps 750 mmHg 31%
    16:00 +2°C° 0 mm 2 mps 750 mmHg 34%
    17:00 +1°C° 0 mm 2 mps 750 mmHg 38%
    18:00 +1°C° 0 mm 1 mps 751 mmHg 42%
    19:00 +1°C° 0 mm 1 mps 751 mmHg 42%
    20:00 0°C° 0 mm 1 mps 751 mmHg 42%
    21:00 0°C° 0 mm 1 mps 751 mmHg 43%
    22:00 0°C° 0 mm 1 mps 751 mmHg 45%
    23:00 -1°C° 0 mm 1 mps 751 mmHg 46%

    Tomorrow, 22 February, Friday

    Time Temperature Precipitation Wind Pressure Humidity
    00:00 -1°C° 0 mm 1 mps 751 mmHg 48%
    01:00 -1°C° 0 mm 1 mps 750 mmHg 50%
    02:00 -3°C° 0 mm 2 mps 750 mmHg 52%
    03:00 -4°C° 0 mm 2 mps 750 mmHg 54%
    04:00 -4°C° 0 mm 2 mps 750 mmHg 54%
    05:00 -4°C° 0 mm 2 mps 750 mmHg 55%
    06:00 -3°C° 0 mm 1 mps 750 mmHg 56%
    07:00 -4°C° 0 mm 2 mps 750 mmHg 54%
    08:00 -3°C° 0 mm 2 mps 750 mmHg 51%
    09:00 -2°C° 0 mm 2 mps 751 mmHg 49%
    10:00 -2°C° 0 mm 2 mps 751 mmHg 49%
    11:00 -1°C° 0 mm 3 mps 751 mmHg 50%
    12:00 0°C° 0 mm 3 mps 751 mmHg 50%
    13:00 +1°C° 0 mm 3 mps 750 mmHg 49%
    14:00 +1°C° 0 mm 3 mps 750 mmHg 47%
    15:00 +1°C° 0 mm 3 mps 749 mmHg 46%
    16:00 +1°C° 0 mm 2 mps 749 mmHg 49%
    17:00 -1°C° 0 mm 2 mps 749 mmHg 52%
    18:00 0°C° 0 mm 1 mps 750 mmHg 55%
    19:00 0°C° 0 mm 1 mps 750 mmHg 54%
    20:00 -2°C° 0 mm 2 mps 750 mmHg 54%
    21:00 -1°C° 0 mm 2 mps 750 mmHg 53%
    22:00 -2°C° 0 mm 2 mps 750 mmHg 61%
    23:00 -4°C° 0 mm 3 mps 751 mmHg 68%

    Day after tomorrow, 23 February, Saturday

    Time Temperature Precipitation Wind Pressure Humidity
    00:00 -4°C° 0 mm 3 mps 751 mmHg 76%
    01:00 -4°C° 0.1 mm 3 mps 751 mmHg 74%
    02:00 -5°C° 0.1 mm 3 mps 752 mmHg 72%
    03:00 -5°C° 0.1 mm 3 mps 752 mmHg 70%
    04:00 -6°C° 0 mm 3 mps 752 mmHg 68%
    05:00 -6°C° 0 mm 3 mps 752 mmHg 67%
    06:00 -7°C° 0 mm 3 mps 753 mmHg 65%
    07:00 -7°C° 0 mm 3 mps 753 mmHg 63%
    08:00 -6°C° 0 mm 3 mps 753 mmHg 61%
    09:00 -6°C° 0 mm 3 mps 754 mmHg 59%
    10:00 -5°C° 0 mm 3 mps 754 mmHg 53%
    11:00 -4°C° 0 mm 3 mps 754 mmHg 47%
    12:00 -3°C° 0 mm 4 mps 754 mmHg 41%
    13:00 -2°C° 0 mm 3 mps 753 mmHg 40%
    14:00 -2°C° 0 mm 3 mps 753 mmHg 39%
    15:00 -1°C° 0 mm 3 mps 752 mmHg 38%
    16:00 -2°C° 0 mm 2 mps 752 mmHg 41%
    17:00 -2°C° 0 mm 2 mps 752 mmHg 44%
    18:00 -1°C° 0 mm 1 mps 752 mmHg 47%
    19:00 -1°C° 0 mm 1 mps 752 mmHg 48%
    20:00 -2°C° 0 mm 1 mps 752 mmHg 48%
    21:00 -4°C° 0 mm 2 mps 752 mmHg 49%
    22:00 -4°C° 0 mm 2 mps 752 mmHg 49%
    23:00 -4°C° 0 mm 2 mps 752 mmHg 48%

    24 February, Sunday

    Time Temperature Precipitation Wind Pressure Humidity
    00:00 -4°C° 0 mm 2 mps 751 mmHg 48%
    01:00 -4°C° 0 mm 2 mps 751 mmHg 47%
    02:00 -4°C° 0 mm 2 mps 751 mmHg 46%
    03:00 -4°C° 0 mm 2 mps 750 mmHg 46%
    04:00 -4°C° 0 mm 2 mps 749 mmHg 49%
    05:00 -5°C° 0 mm 3 mps 749 mmHg 52%
    06:00 -5°C° 0 mm 3 mps 748 mmHg 56%
    07:00 -2°C° 0 mm 3 mps 748 mmHg 54%
    08:00 -2°C° 0 mm 4 mps 748 mmHg 53%
    09:00 0°C° 0 mm 4 mps 747 mmHg 52%
    10:00 +1°C° 0 mm 5 mps 747 mmHg 45%
    11:00 +2°C° 0 mm 5 mps 747 mmHg 39%
    12:00 +3°C° 0 mm 6 mps 746 mmHg 32%
    13:00 +3°C° 0 mm 6 mps 746 mmHg 33%
    14:00 +2°C° 0 mm 5 mps 746 mmHg 34%
    15:00 +2°C° 0 mm 5 mps 745 mmHg 35%
    16:00 +1°C° 0 mm 4 mps 746 mmHg 40%
    17:00 +1°C° 0 mm 3 mps 746 mmHg 46%
    18:00 -1°C° 0 mm 2 mps 746 mmHg 52%
    19:00 -1°C° 0 mm 2 mps 746 mmHg 52%
    20:00 -1°C° 0 mm 2 mps 747 mmHg 53%
    21:00 -1°C° 0 mm 2 mps 747 mmHg 53%
    22:00 -2°C° 0 mm 3 mps 747 mmHg 50%
    23:00 -2°C° 0 mm 3 mps 748 mmHg 47%

    25 February, Monday

    Time Temperature Precipitation Wind Pressure Humidity
    00:00 -4°C° 0 mm 3 mps 748 mmHg 44%
    01:00 -3°C° 0 mm 2 mps 748 mmHg 45%
    02:00 -4°C° 0 mm 2 mps 748 mmHg 46%
    03:00 -4°C° 0 mm 2 mps 748 mmHg 47%
    04:00 -4°C° 0 mm 2 mps 748 mmHg 47%
    05:00 -5°C° 0 mm 2 mps 748 mmHg 47%
    06:00 -5°C° 0 mm 2 mps 748 mmHg 47%
    07:00 -5°C° 0 mm 3 mps 749 mmHg 42%
    08:00 -4°C° 0 mm 4 mps 749 mmHg 37%
    09:00 -3°C° 0 mm 4 mps 749 mmHg 31%
    10:00 -4°C° 0 mm 5 mps 749 mmHg 29%
    11:00 -2°C° 0 mm 5 mps 749 mmHg 26%
    12:00 -1°C° 0 mm 5 mps 749 mmHg 24%
    13:00 -1°C° 0 mm 5 mps 749 mmHg 24%
    14:00 -1°C° 0 mm 5 mps 749 mmHg 24%
    15:00 -1°C° 0 mm 5 mps 749 mmHg 24%
    16:00 -2°C° 0 mm 4 mps 749 mmHg 27%
    17:00 -2°C° 0 mm 3 mps 749 mmHg 30%
    18:00 -3°C° 0 mm 2 mps 750 mmHg 33%
    19:00 -1°C° 0 mm 1 mps 750 mmHg 35%
    20:00 -1°C° 0 mm 1 mps 751 mmHg 36%
    21:00 -2°C° 0 mm 1 mps 751 mmHg 38%
    22:00 -2°C° 0 mm 1 mps 751 mmHg 39%
    23:00 -2°C° 0 mm 1 mps 751 mmHg 40%

    26 February, Tuesday

    Time Temperature Precipitation Wind Pressure Humidity
    00:00 -2°C° 0 mm 1 mps 751 mmHg 41%
    01:00 -3°C° 0 mm 1 mps 751 mmHg 42%
    02:00 -3°C° 0 mm 1 mps 751 mmHg 42%
    03:00 -3°C° 0 mm 1 mps 751 mmHg 42%
    04:00 -3°C° 0 mm 1 mps 752 mmHg 43%
    05:00 -4°C° 0 mm 1 mps 752 mmHg 44%
    06:00 -4°C° 0 mm 1 mps 752 mmHg 45%
    07:00 -3°C° 0 mm 1 mps 752 mmHg 43%
    08:00 -2°C° 0 mm 1 mps 752 mmHg 42%
    09:00 -3°C° 0 mm 2 mps 753 mmHg 40%
    10:00 -2°C° 0 mm 2 mps 753 mmHg 37%
    11:00 -2°C° 0 mm 3 mps 753 mmHg 35%
    12:00 -1°C° 0 mm 3 mps 753 mmHg 33%
    13:00 -2°C° 0 mm 4 mps 753 mmHg 33%
    14:00 -2°C° 0 mm 4 mps 753 mmHg 34%
    15:00 -2°C° 0 mm 4 mps 753 mmHg 34%
    16:00 -2°C° 0 mm 3 mps 754 mmHg 36%
    17:00 -4°C° 0 mm 3 mps 754 mmHg 37%
    18:00 -3°C° 0 mm 2 mps 755 mmHg 38%
    19:00 -4°C° 0 mm 2 mps 755 mmHg 40%
    20:00 -2°C° 0 mm 1 mps 755 mmHg 41%
    21:00 -2°C° 0 mm 1 mps 756 mmHg 42%
    22:00 -3°C° 0 mm 1 mps 756 mmHg 43%
    23:00 -3°C° 0 mm 1 mps 756 mmHg 44%
    Show more